This is the latest recevied weather packets stored in our database for station/object W1HVD. If no packets are shown the sender has not sent any weather packets the latest 10 day(s).
| Time | Temp. | Humidity | Pressure | Rain* | Wind** | Luminosity | Snow |
|---|---|---|---|---|---|---|---|
| 1778167580 | 15.56° C | 64% | 1007.5 hPa | 0 mm | - | 851 W/m² | - |
| 1778167276 | 15.56° C | 55% | 1007.5 hPa | 0 mm | - | 856 W/m² | - |
| 1778166972 | 15.56° C | 57% | 1007.4 hPa | 0 mm | - | 779 W/m² | - |
| 1778166670 | 15.56° C | 59% | 1007.6 hPa | 0 mm | - | 808 W/m² | - |
| 1778166367 | 15.56° C | 57% | 1007.6 hPa | 0 mm | - | 807 W/m² | - |
| 1778166063 | 15.56° C | 62% | 1007.6 hPa | 0 mm | - | 298 W/m² | - |
| 1778165758 | 15° C | 66% | 1007.8 hPa | 0 mm | - | 456 W/m² | - |
| 1778165457 | 15° C | 62% | 1007.8 hPa | 0 mm | - | 174 W/m² | - |
| 1778165152 | 15° C | 61% | 1007.7 hPa | 0 mm | - | 785 W/m² | - |
| 1778164850 | 15° C | 64% | 1007.8 hPa | 0 mm | - | 695 W/m² | - |
| 1778164546 | 15° C | 64% | 1007.8 hPa | 0 mm | - | 678 W/m² | - |
| 1778164245 | 15° C | 65% | 1007.4 hPa | 0 mm | - | 340 W/m² | - |
| 1778163944 | 14.44° C | 68% | 1007.7 hPa | 0 mm | - | 366 W/m² | - |
| 1778163642 | 13.89° C | 74% | 1007.8 hPa | 0 mm | - | 681 W/m² | - |
| 1778163338 | 13.89° C | 70% | 1007.9 hPa | 0 mm | - | 652 W/m² | - |
| 1778163035 | 13.89° C | 78% | 1008.1 hPa | 0 mm | - | 614 W/m² | - |
| 1778162732 | 12.78° C | 71% | 1008 hPa | 0 mm | - | 554 W/m² | - |
| 1778162429 | 12.78° C | 74% | 1008.2 hPa | 0 mm | - | 764 W/m² | - |
| 1778162126 | 12.78° C | 76% | 1008.2 hPa | 0 mm | - | 851 W/m² | - |
| 1778161823 | 12.78° C | 85% | 1007.9 hPa | 0 mm | - | 762 W/m² | - |
| 1778161520 | 12.22° C | 84% | 1008 hPa | 0 mm | - | 823 W/m² | - |
| 1778161215 | 12.22° C | 89% | 1008.1 hPa | 0 mm | - | 762 W/m² | - |
| 1778160912 | 11.67° C | 91% | 1008.1 hPa | 0 mm | - | 424 W/m² | - |
| 1778160610 | 11.11° C | 92% | 1008 hPa | 0 mm | - | 837 W/m² | - |
| 1778160306 | 11.11° C | 94% | 1008.3 hPa | 0 mm | - | 143 W/m² | - |
* Rain latest hour (hover to see other rain measurements)
** Current wind speed in m/s (hover to see current wind gust speed)